EA4DB Madrid ES current weather conditions

sailwx.info

Wind from 225 at 3 knots gusting 8

Air temperature 35.6° C
Dewpoint 8.4° C

Last reported at 2014-Jul-25 14:46 UTC.
Time now 2014-Jul-25 16:01 UTC

Location: N 40°25' W 003°39'.
View on Google Maps.

See reports from other nearby stations

  
Tides and Currents Weather Stations Pressure Air Temp Water Temp Dewpoint Dewpoint Depression Visibility Wind Speed Wind Dir Waves Ship Positions
date/time (UTC)wind fromknots sea level pressurealtimeterstation pressurevisibilityair tempwater tempwave heightnotes
2014-Jul-25 14:46 225 3 gusting 8 35.6
2014-Jul-25 14:41 180 6 gusting 8 36.7
2014-Jul-25 14:36 135 0 gusting 8 36.7
2014-Jul-25 14:31 225 1 gusting 8 36.7
2014-Jul-25 14:26 225 4 gusting 8 36.1
2014-Jul-25 14:21 180 5 gusting 12 36.7
2014-Jul-25 14:16 180 0 gusting 5 37.2
2014-Jul-25 14:11 35.6
2014-Jul-25 14:06 248 3 gusting 9 35.6
2014-Jul-25 14:01 180 3 gusting 11 35.6
2014-Jul-25 13:56 225 3 gusting 9 36.1
2014-Jul-25 13:51 225 0 gusting 6 36.1
2014-Jul-25 13:46 315 6 gusting 9 36.1
2014-Jul-25 13:41 090 2 gusting 6 36.7
2014-Jul-25 13:36 293 0 gusting 9 35.6
2014-Jul-25 13:31 180 3 gusting 9 36.7
2014-Jul-25 13:26 225 3 gusting 8 35.6
2014-Jul-25 13:21 225 1 gusting 8 36.1
2014-Jul-25 13:16 180 1 gusting 9 35.6
2014-Jul-25 13:11 225 1 gusting 11 35.6
2014-Jul-25 13:06 225 1 gusting 12 35.0
2014-Jul-25 13:01 180 5 gusting 8 35.0
2014-Jul-25 12:56 270 1 gusting 11 35.0
2014-Jul-25 12:51 225 6 gusting 10 35.0
2014-Jul-25 12:46 225 3 gusting 9 34.4
2014-Jul-25 12:41 225 6 gusting 9 35.0
2014-Jul-25 12:36 180 6 gusting 12 35.6
2014-Jul-25 12:31 225 3 gusting 12 35.6
2014-Jul-25 12:26 270 3 gusting 6 36.1
2014-Jul-25 12:21 35.6
2014-Jul-25 12:16 225 1 gusting 6 35.0
2014-Jul-25 12:11 35.0
2014-Jul-25 12:06 35.0
2014-Jul-25 12:01 090 34.4
2014-Jul-25 11:56 270 2 gusting 6 34.4
2014-Jul-25 11:51 045 1 gusting 6 34.4
2014-Jul-25 11:46 34.4
2014-Jul-25 11:41 225 2 gusting 6 35.6
2014-Jul-25 11:36 135 1 gusting 6 35.0
2014-Jul-25 11:31 180 1 gusting 6 35.0
2014-Jul-25 11:26 270 1 gusting 11 33.9
2014-Jul-25 11:21 225 3 gusting 6 34.4
2014-Jul-25 11:16 135 1 gusting 4 34.4
2014-Jul-25 11:11 315 4 gusting 6 34.4
2014-Jul-25 11:06 270 1 gusting 4 34.4
2014-Jul-25 11:01 315 1 gusting 3 33.3
2014-Jul-25 10:56 315 0 gusting 6 32.8
2014-Jul-25 10:51 270 32.8
2014-Jul-25 10:46 225 4 gusting 9 32.8
2014-Jul-25 10:41 225 1 gusting 6 32.8
2014-Jul-25 10:36 225 32.8
2014-Jul-25 10:31 135 2 gusting 6 32.8
2014-Jul-25 10:26 180 3 gusting 6 32.2
2014-Jul-25 10:16 180 3 gusting 6 32.2
2014-Jul-25 10:11 225 5 gusting 6 33.3
2014-Jul-25 10:06 225 2 gusting 3 33.9
2014-Jul-25 10:01 225 2 gusting 3 33.9
2014-Jul-25 09:56 270 33.3
2014-Jul-25 09:51 315 33.3
2014-Jul-25 09:46 225 0 gusting 1 33.3
2014-Jul-25 09:41 32.2
2014-Jul-25 09:36 225 0 gusting 5 32.2
2014-Jul-25 09:31 315 32.2
2014-Jul-25 09:26 090 1 gusting 4 31.7
2014-Jul-25 09:21 315 0 gusting 3 31.7
2014-Jul-25 09:16 315 31.1
2014-Jul-25 09:11 315 31.7
2014-Jul-25 09:06 180 31.7
2014-Jul-25 09:01 180 31.7
2014-Jul-25 08:56 315 1 gusting 3 31.1
2014-Jul-25 08:51 270 31.7
2014-Jul-25 08:46 30.6
2014-Jul-25 08:41 31.1
2014-Jul-25 08:36 31.1
2014-Jul-25 08:31 315 1 gusting 3 31.1
2014-Jul-25 08:26 315 1 gusting 3 31.1
2014-Jul-25 08:21 113 1 gusting 2 31.7
2014-Jul-25 08:16 315 0 gusting 2 31.7
2014-Jul-25 08:11 315 1 gusting 3 32.2
2014-Jul-25 08:06 090 31.7
2014-Jul-25 08:01 090 31.7
2014-Jul-25 07:56 068 0 gusting 1 31.7
2014-Jul-25 07:51 293 31.7
2014-Jul-25 07:46 180 31.1
2014-Jul-25 07:41 090 31.7
2014-Jul-25 07:36 270 31.1
2014-Jul-25 07:31 315 31.1
2014-Jul-25 07:26 225 30.6
2014-Jul-25 07:21 225 29.4
2014-Jul-25 07:16 270 28.9
2014-Jul-25 07:11 180 0 gusting 2 28.9
2014-Jul-25 07:06 225 28.3
2014-Jul-25 07:01 135 28.3
2014-Jul-25 06:56 270 27.8
2014-Jul-25 06:51 225 27.2
2014-Jul-25 06:46 135 26.7
2014-Jul-25 06:41 270 26.7
2014-Jul-25 06:36 225 0 gusting 1 26.1
2014-Jul-25 06:31 135 25.6
2014-Jul-25 06:26 135 1 gusting 3 25.6
2014-Jul-25 06:21 315 25.0
2014-Jul-25 06:16 225 0 gusting 3 24.4
2014-Jul-25 06:11 180 0 gusting 3 24.4
2014-Jul-25 06:06 225 23.3
2014-Jul-25 06:01 225 23.3
2014-Jul-25 05:56 225 22.8
2014-Jul-25 05:51 180 22.8
2014-Jul-25 05:46 225 22.8
2014-Jul-25 05:41 248 22.8
2014-Jul-25 05:36 135 22.8
2014-Jul-25 05:31 315 22.8
2014-Jul-25 05:26 068 22.8
2014-Jul-25 05:21 180 22.8
2014-Jul-25 05:16 180 22.2
2014-Jul-25 05:11 135 22.8
2014-Jul-25 05:06 135 1 gusting 2 22.8
2014-Jul-25 05:01 135 1 gusting 2 22.8
2014-Jul-25 04:56 225 0 gusting 2 22.8
2014-Jul-25 04:51 180 1 gusting 1 22.8
2014-Jul-25 04:46 180 0 gusting 1 23.3
2014-Jul-25 04:41 180 23.3
2014-Jul-25 04:36 180 0 gusting 3 23.3
2014-Jul-25 04:31 225 0 gusting 2 24.4
2014-Jul-25 04:26 225 1 gusting 3 23.9
2014-Jul-25 04:21 180 0 gusting 4 24.4
2014-Jul-25 04:16 225 1 gusting 4 24.4
2014-Jul-25 04:11 180 1 gusting 3 24.4
2014-Jul-25 04:06 203 0 gusting 1 24.4
2014-Jul-25 04:01 203 0 gusting 2 24.4
2014-Jul-25 03:56 180 0 gusting 3 24.4
2014-Jul-25 03:51 225 1 gusting 3 23.9
2014-Jul-25 03:46 225 24.4
2014-Jul-25 03:41 225 0 gusting 1 24.4
2014-Jul-25 03:36 180 0 gusting 3 24.4
2014-Jul-25 03:31 180 1 gusting 3 24.4
2014-Jul-25 03:26 270 1 gusting 3 24.4
2014-Jul-25 03:21 248 1 gusting 4 24.4
2014-Jul-25 03:16 225 2 gusting 5 24.4
2014-Jul-25 03:11 225 1 gusting 3 24.4
2014-Jul-25 03:06 315 1 gusting 1 24.4
2014-Jul-25 03:01 315 1 gusting 1 24.4
2014-Jul-25 02:56 24.4
2014-Jul-25 02:51 24.4
2014-Jul-25 02:46 315 0 gusting 2 24.4
2014-Jul-25 02:41 25.0
2014-Jul-25 02:36 090 25.0
2014-Jul-25 02:31 315 25.6
2014-Jul-25 02:26 225 25.6
2014-Jul-25 02:21 315 25.0
2014-Jul-25 02:16 225 0 gusting 1 25.6
2014-Jul-25 02:11 270 25.6
2014-Jul-25 02:06 315 0 gusting 1 25.6
2014-Jul-25 02:01 315 0 gusting 1 25.6
2014-Jul-25 01:56 225 26.1
2014-Jul-25 01:51 225 0 gusting 1 26.1
2014-Jul-25 01:46 225 0 gusting 1 26.1
2014-Jul-25 01:41 225 25.6
2014-Jul-25 01:36 225 26.1
2014-Jul-25 01:31 225 26.7
2014-Jul-25 01:26 225 26.7
2014-Jul-25 01:21 270 2 gusting 3 26.7
2014-Jul-25 01:16 225 1 gusting 3 26.1
2014-Jul-25 01:11 225 1 gusting 2 26.1
2014-Jul-25 01:06 180 0 gusting 1 26.1
2014-Jul-25 01:01 180 26.1
2014-Jul-25 00:56 180 26.1
2014-Jul-25 00:51 180 26.1
2014-Jul-25 00:46 180 26.7
2014-Jul-25 00:41 090 26.7
2014-Jul-25 00:36 045 0 gusting 1 27.2
2014-Jul-25 00:31 315 27.2
2014-Jul-25 00:26 225 27.2
2014-Jul-25 00:21 225 27.2
2014-Jul-25 00:16 180 27.2
2014-Jul-25 00:11 180 0 gusting 1 27.8
2014-Jul-25 00:06 225 2 gusting 3 27.8
2014-Jul-25 00:01 225 2 gusting 3 27.8
2014-Jul-24 23:56 225 1 gusting 4 27.8
2014-Jul-24 23:51 225 1 gusting 4 27.8
2014-Jul-24 23:46 225 0 gusting 3 27.8
2014-Jul-24 23:41 248 1 gusting 3 27.8
2014-Jul-24 23:36 180 27.8
2014-Jul-24 23:31 180 0 gusting 1 28.3
2014-Jul-24 23:26 225 0 gusting 2 28.3
2014-Jul-24 23:21 225 1 gusting 3 28.3
2014-Jul-24 23:16 225 1 gusting 4 28.3
2014-Jul-24 23:11 225 1 gusting 6 28.9
2014-Jul-24 23:06 180 0 gusting 2 28.3
2014-Jul-24 23:01 180 0 gusting 6 28.3
2014-Jul-24 22:56 270 1 gusting 3 28.3
2014-Jul-24 22:51 203 1 gusting 6 28.9
2014-Jul-24 22:46 225 1 gusting 6 28.9
2014-Jul-24 22:41 225 0 gusting 3 28.9
2014-Jul-24 22:36 315 1 gusting 4 29.4
2014-Jul-24 22:31 225 0 gusting 3 28.9
2014-Jul-24 22:26 270 1 gusting 5 29.4
2014-Jul-24 22:21 225 3 gusting 5 28.9
2014-Jul-24 22:16 315 2 gusting 5 29.4
2014-Jul-24 22:11 225 1 gusting 4 29.4
2014-Jul-24 22:06 225 1 gusting 3 29.4
2014-Jul-24 22:01 225 1 gusting 3 29.4
2014-Jul-24 21:56 270 0 gusting 2 30.0
2014-Jul-24 21:51 270 1 gusting 4 29.4
2014-Jul-24 21:46 225 0 gusting 3 29.4
2014-Jul-24 21:41 225 2 gusting 3 29.4
2014-Jul-24 21:36 315 30.6
2014-Jul-24 21:31 225 30.0
2014-Jul-24 21:26 270 0 gusting 6 30.0
2014-Jul-24 21:21 248 0 gusting 6 30.6
2014-Jul-24 21:16 270 3 gusting 7 30.6
2014-Jul-24 21:11 225 1 gusting 6 30.6
2014-Jul-24 21:06 30.6
2014-Jul-24 21:01 225 1 gusting 6 31.1
2014-Jul-24 20:56 270 1 gusting 10 30.6
2014-Jul-24 20:51 315 5 gusting 10 31.1
2014-Jul-24 20:46 225 2 gusting 13 31.1
2014-Jul-24 20:41 225 1 gusting 6 31.1
2014-Jul-24 20:36 315 1 gusting 6 31.7
2014-Jul-24 20:31 315 3 gusting 7 31.7
2014-Jul-24 20:26 270 2 gusting 10 31.7
2014-Jul-24 20:21 270 3 gusting 11 31.7
2014-Jul-24 20:16 315 5 gusting 12 31.7
2014-Jul-24 20:11 270 6 gusting 9 31.7
2014-Jul-24 20:06 225 4 gusting 6 31.7
2014-Jul-24 20:01 315 32.2
2014-Jul-24 19:56 225 1 gusting 8 32.2
2014-Jul-24 19:51 293 3 gusting 7 32.2
2014-Jul-24 19:46 270 3 gusting 7 32.2
2014-Jul-24 19:41 315 1 gusting 7 32.8
2014-Jul-24 19:36 32.8
2014-Jul-24 19:31 315 1 gusting 6 32.8
2014-Jul-24 19:26 315 3 gusting 7 32.8
2014-Jul-24 19:21 293 4 gusting 7 33.3
2014-Jul-24 19:16 315 3 gusting 8 33.3
2014-Jul-24 19:11 270 1 gusting 6 33.9
2014-Jul-24 19:06 33.9
2014-Jul-24 19:01 315 2 gusting 6 33.9
2014-Jul-24 18:56 270 2 gusting 5 33.9
2014-Jul-24 18:51 315 2 gusting 6 33.9
2014-Jul-24 18:46 270 2 gusting 9 34.4
2014-Jul-24 18:41 270 3 gusting 9 34.4
2014-Jul-24 18:36 315 3 gusting 7 35.0
2014-Jul-24 18:26 225 2 gusting 7 35.0
2014-Jul-24 18:21 315 6 gusting 9 35.0
2014-Jul-24 18:16 315 4 gusting 9 35.6
2014-Jul-24 18:11 338 2 gusting 6 35.6
2014-Jul-24 18:06 270 3 gusting 9 35.6
2014-Jul-24 18:01 315 1 gusting 6 35.6
2014-Jul-24 17:56 180 3 gusting 8 35.6
2014-Jul-24 17:51 225 4 gusting 9 35.6
2014-Jul-24 17:46 270 2 gusting 9 36.1
2014-Jul-24 17:41 270 2 gusting 9 36.7
2014-Jul-24 17:36 315 4 gusting 13 36.1
2014-Jul-24 17:31 270 1 gusting 7 36.7
2014-Jul-24 17:26 315 1 gusting 9 35.6
2014-Jul-24 17:21 35.6
2014-Jul-24 17:16 315 3 gusting 6 36.1
2014-Jul-24 17:11 315 4 gusting 9 36.1
2014-Jul-24 17:06 315 6 gusting 10 36.1
2014-Jul-24 17:01 270 1 gusting 9 36.1
2014-Jul-24 16:56 315 3 gusting 6 36.7
2014-Jul-24 16:51 36.1
2014-Jul-24 16:46 270 2 gusting 9 36.1
2014-Jul-24 16:41 315 4 gusting 6 36.1
2014-Jul-24 16:36 135 36.1
2014-Jul-24 16:31 36.7
2014-Jul-24 16:26 270 4 gusting 13 36.7
2014-Jul-24 16:21 270 3 gusting 6 37.2
2014-Jul-24 16:16 270 1 gusting 9 37.2
2014-Jul-24 16:11 270 3 gusting 7 36.7
2014-Jul-24 16:06 225 5 gusting 11 36.7
2014-Jul-24 16:01 180 3 gusting 5 37.2
2014-Jul-24 15:56 270 1 gusting 11 36.7
2014-Jul-24 15:51 180 5 gusting 9 36.7
2014-Jul-24 15:46 315 3 gusting 8 36.7
2014-Jul-24 15:41 315 5 gusting 13 36.7
2014-Jul-24 15:36 225 6 gusting 11 36.7
2014-Jul-24 15:31 270 1 gusting 6 36.7
2014-Jul-24 15:26 225 4 gusting 8 36.7
2014-Jul-24 15:21 225 2 gusting 5 36.7
2014-Jul-24 15:16 315 0 gusting 9 36.1
2014-Jul-24 15:11 225 6 gusting 9 36.7
2014-Jul-24 15:06 180 6 gusting 9 36.7
2014-Jul-24 15:01 180 4 gusting 10 36.7
2014-Jul-24 14:56 180 2 gusting 5 37.2
2014-Jul-24 14:51 180 1 gusting 8 36.7
2014-Jul-24 14:46 225 8 gusting 14 37.2
2014-Jul-24 14:41 180 3 gusting 5 37.8
2014-Jul-24 14:36 180 2 gusting 13 37.2
2014-Jul-24 14:31 180 6 gusting 11 37.2
2014-Jul-24 14:26 180 3 gusting 9 37.2
2014-Jul-24 14:21 180 6 gusting 13 37.2
2014-Jul-24 14:16 270 5 gusting 10 37.8
2014-Jul-24 14:11 180 0 gusting 3 37.8
2014-Jul-24 14:06 270 1 gusting 8 37.2
2014-Jul-24 14:01 225 3 gusting 8 37.8
2014-Jul-24 13:56 270 1 gusting 10 37.2
2014-Jul-24 13:51 158 6 gusting 6 36.7
2014-Jul-24 13:46 36.7
2014-Jul-24 13:41 338 2 gusting 6 35.6
2014-Jul-24 13:36 315 2 gusting 6 36.1
2014-Jul-24 13:31 225 2 gusting 6 37.2
2014-Jul-24 13:26 225 3 gusting 7 37.8
2014-Jul-24 13:21 225 2 gusting 10 37.8
2014-Jul-24 13:16 090 0 gusting 6 37.2
2014-Jul-24 13:11 180 3 gusting 7 36.7
2014-Jul-24 13:06 135 3 gusting 9 36.1
2014-Jul-24 13:01 270 5 gusting 9 37.2
2014-Jul-24 12:56 315 4 gusting 8 37.2
2014-Jul-24 12:51 135 2 gusting 6 37.2
2014-Jul-24 12:46 180 1 gusting 5 36.1
2014-Jul-24 12:41 315 1 gusting 4 35.0
2014-Jul-24 12:36 225 1 gusting 4 35.6
2014-Jul-24 12:31 135 1 gusting 6 35.6
2014-Jul-24 12:26 225 4 gusting 8 36.1
2014-Jul-24 12:21 315 5 gusting 9 35.6
2014-Jul-24 12:16 36.7
2014-Jul-24 12:11 315 0 gusting 4 36.7
2014-Jul-24 12:06 315 0 gusting 6 37.2
2014-Jul-24 12:01 37.2
2014-Jul-24 11:56 225 1 gusting 5 36.1
2014-Jul-24 11:51 225 3 gusting 6 36.1
2014-Jul-24 11:46 180 5 gusting 6 37.2
2014-Jul-24 11:41 270 1 gusting 4 36.1
2014-Jul-24 11:36 180 1 gusting 6 35.6
2014-Jul-24 11:31 225 6 gusting 9 36.1
2014-Jul-24 11:26 315 2 gusting 6 37.2
2014-Jul-24 11:21 270 1 gusting 3 37.2
2014-Jul-24 11:16 180 1 gusting 4 37.2
2014-Jul-24 11:11 180 1 gusting 4 37.2
2014-Jul-24 11:06 135 0 gusting 4 37.2
2014-Jul-24 11:01 37.2
2014-Jul-24 10:56 270 1 gusting 5 36.1
2014-Jul-24 10:51 36.1
2014-Jul-24 10:46 315 0 gusting 3 36.1
2014-Jul-24 10:41 225 1 gusting 3 35.6
2014-Jul-24 10:36 35.6
2014-Jul-24 10:31 225 0 gusting 3 35.6
2014-Jul-24 10:26 225 0 gusting 3 35.6
2014-Jul-24 10:21 270 1 gusting 4 35.0
2014-Jul-24 10:16 35.0
2014-Jul-24 10:11 315 1 gusting 3 34.4
2014-Jul-24 10:06 090 33.9
2014-Jul-24 10:01 270 1 gusting 3 34.4
2014-Jul-24 09:56 315 33.9
2014-Jul-24 09:51 33.9
2014-Jul-24 09:46 090 1 gusting 4 33.3
2014-Jul-24 09:41 33.3
2014-Jul-24 09:36 045 1 gusting 3 32.8
2014-Jul-24 09:31 315 1 gusting 4 32.2
2014-Jul-24 09:26 32.2
2014-Jul-24 09:21 090 0 gusting 3 31.7
2014-Jul-24 09:16 315 1 gusting 4 32.2
2014-Jul-24 09:11 315 31.7
2014-Jul-24 09:06 31.7
2014-Jul-24 09:01 31.7
2014-Jul-24 08:56 31.1
2014-Jul-24 08:51 315 1 gusting 4 31.1
2014-Jul-24 08:46 180 31.1
2014-Jul-24 08:41 31.1
2014-Jul-24 08:36 30.6
2014-Jul-24 08:31 315 0 gusting 1 31.1
2014-Jul-24 08:26 30.6
2014-Jul-24 08:21 31.1
2014-Jul-24 08:16 31.1
2014-Jul-24 08:11 30.6
2014-Jul-24 08:06 30.6
2014-Jul-24 08:01 315 2 gusting 3 30.6
2014-Jul-24 07:56 090 0 gusting 4 29.4
2014-Jul-24 07:51 29.4
2014-Jul-24 07:46 28.9
2014-Jul-24 07:41 28.9
2014-Jul-24 07:36 090 2 gusting 4 28.3
2014-Jul-24 07:31 090 1 gusting 4 28.3
2014-Jul-24 07:26 27.8
2014-Jul-24 07:21 090 1 gusting 4 27.8
2014-Jul-24 07:16 293 1 gusting 5 27.8
2014-Jul-24 07:11 28.3
2014-Jul-24 07:06 28.3
2014-Jul-24 07:01 28.3
2014-Jul-24 06:56 315 27.8
2014-Jul-24 06:51 315 1 gusting 3 27.8
2014-Jul-24 06:46 090 1 gusting 4 27.8
2014-Jul-24 06:41 315 0 gusting 4 26.7
2014-Jul-24 06:36 26.7
2014-Jul-24 06:31 315 0 gusting 3 26.1
2014-Jul-24 06:26 315 1 gusting 4 26.7
2014-Jul-24 06:21 180 1 gusting 3 26.7
2014-Jul-24 06:16 26.1
2014-Jul-24 06:11 26.1
2014-Jul-24 06:06 25.0
2014-Jul-24 06:01 25.0
2014-Jul-24 05:56 090 24.4
2014-Jul-24 05:51 180 24.4
2014-Jul-24 05:46 270 24.4
2014-Jul-24 04:46 225 1 gusting 2 25.0
2014-Jul-24 04:41 25.0
2014-Jul-24 04:36 315 3 gusting 7 25.0
2014-Jul-24 04:31 135 3 gusting 9 25.0
2014-Jul-24 04:26 090 3 gusting 10 25.0
2014-Jul-24 04:21 25.6
2014-Jul-24 04:16 090 5 gusting 9 25.0
2014-Jul-24 04:11 225 1 gusting 5 25.0
2014-Jul-24 04:06 25.0
2014-Jul-24 04:01 135 1 gusting 3 25.0
2014-Jul-24 03:56 25.6
2014-Jul-24 03:51 315 25.6
2014-Jul-24 03:46 270 1 gusting 6 25.6
2014-Jul-24 03:41 25.6
2014-Jul-24 03:36 25.6
2014-Jul-24 03:31 25.6
2014-Jul-24 03:26 25.6
2014-Jul-24 03:21 25.6
2014-Jul-24 03:16 25.6
2014-Jul-24 03:11 25.6
2014-Jul-24 03:06 315 1 gusting 2 25.6
2014-Jul-24 03:01 315 1 gusting 3 25.6
2014-Jul-24 02:56 315 25.6
2014-Jul-24 02:51 315 1 gusting 2 26.1
2014-Jul-24 02:46 25.6
2014-Jul-24 02:41 315 0 gusting 5 26.1
2014-Jul-24 02:36 26.1
2014-Jul-24 02:31 225 26.1
2014-Jul-24 02:26 315 0 gusting 6 26.1
2014-Jul-24 02:21 26.1
2014-Jul-24 02:16 26.1
2014-Jul-24 02:11 26.1
2014-Jul-24 02:06 26.7
2014-Jul-24 02:01 26.7
2014-Jul-24 01:56 045 0 gusting 4 26.7
2014-Jul-24 01:51 26.7
2014-Jul-24 01:46 26.7
2014-Jul-24 01:41 135 1 gusting 8 26.7
2014-Jul-24 01:36 26.7
2014-Jul-24 01:31 315 1 gusting 6 26.7
2014-Jul-24 01:26 045 3 gusting 6 26.7
2014-Jul-24 01:21 315 2 gusting 5 26.7
2014-Jul-24 01:16 315 1 gusting 5 26.7
2014-Jul-24 01:11 315 0 gusting 3 26.7
2014-Jul-24 01:06 315 3 gusting 5 27.2
2014-Jul-24 01:01 315 3 gusting 6 27.2
2014-Jul-24 00:56 315 3 gusting 6 27.2
2014-Jul-24 00:51 27.2
2014-Jul-24 00:46 315 1 gusting 3 27.2
2014-Jul-24 00:41 315 27.2
2014-Jul-24 00:36 315 2 gusting 6 27.2
2014-Jul-24 00:31 045 1 gusting 6 27.8
2014-Jul-24 00:26 045 1 gusting 6 27.8
2014-Jul-24 00:21 27.8
2014-Jul-24 00:16 315 2 gusting 9 27.8
2014-Jul-24 00:11 27.8
2014-Jul-24 00:06 315 1 gusting 3 27.8
2014-Jul-24 00:01 315 1 gusting 6 27.8
2014-Jul-23 23:56 27.8
2014-Jul-23 23:51 315 27.8
2014-Jul-23 23:46 28.3
2014-Jul-23 23:41 315 0 gusting 3 28.3
2014-Jul-23 23:36 28.3
2014-Jul-23 23:31 28.9
2014-Jul-23 23:26 045 1 gusting 4 28.9
2014-Jul-23 23:21 28.9
2014-Jul-23 23:16 270 1 gusting 4 30.0
2014-Jul-23 23:11 225 1 gusting 3 28.9
2014-Jul-23 23:06 180 0 gusting 1 29.4
2014-Jul-23 23:01 270 1 gusting 6 29.4
2014-Jul-23 22:56 225 2 gusting 6 29.4
2014-Jul-23 22:51 225 3 gusting 6 29.4
2014-Jul-23 22:46 29.4
2014-Jul-23 22:41 225 2 gusting 3 29.4
2014-Jul-23 22:36 270 0 gusting 3 30.0
2014-Jul-23 22:31 315 1 gusting 3 30.0
2014-Jul-23 22:26 315 30.0
2014-Jul-23 22:21 270 30.0
2014-Jul-23 22:16 180 0 gusting 3 30.6
2014-Jul-23 22:11 225 1 gusting 4 30.6
2014-Jul-23 22:06 135 30.6
2014-Jul-23 22:01 135 30.6
2014-Jul-23 21:56 270 1 gusting 6 31.1
2014-Jul-23 21:51 270 3 gusting 6 31.1
2014-Jul-23 21:46 225 1 gusting 6 31.1
2014-Jul-23 21:41 315 1 gusting 4 30.6
2014-Jul-23 21:36 225 31.1
2014-Jul-23 21:31 270 31.1
2014-Jul-23 21:26 225 0 gusting 1 31.1
2014-Jul-23 21:21 180 31.7
2014-Jul-23 21:16 225 31.7
2014-Jul-23 21:11 225 2 gusting 6 32.2
2014-Jul-23 21:06 270 1 gusting 6 32.2
2014-Jul-23 21:01 225 2 gusting 6 32.2
2014-Jul-23 20:56 270 1 gusting 6 31.7
2014-Jul-23 20:51 180 1 gusting 6 32.2
2014-Jul-23 20:46 225 2 gusting 6 32.2
2014-Jul-23 20:41 32.2
2014-Jul-23 20:36 270 3 gusting 6 32.8
2014-Jul-23 20:31 315 0 gusting 8 32.8
2014-Jul-23 20:26 315 1 gusting 7 32.8
2014-Jul-23 20:21 270 3 gusting 6 33.3
2014-Jul-23 20:16 315 0 gusting 6 32.8
2014-Jul-23 20:11 180 3 gusting 6 33.3
2014-Jul-23 20:06 33.3
2014-Jul-23 20:01 270 33.9
2014-Jul-23 19:56 225 3 gusting 7 33.9
2014-Jul-23 19:51 225 1 gusting 6 33.3
2014-Jul-23 19:46 270 0 gusting 9 33.9
2014-Jul-23 19:41 270 2 gusting 7 33.9
2014-Jul-23 19:36 225 5 gusting 10 33.9
2014-Jul-23 19:26 180 1 gusting 9 35.0
2014-Jul-23 19:21 180 1 gusting 8 35.0
2014-Jul-23 19:16 293 6 gusting 10 35.6
2014-Jul-23 19:11 35.6
2014-Jul-23 19:06 225 3 gusting 9 35.0
2014-Jul-23 19:01 270 5 gusting 9 35.6
2014-Jul-23 18:56 270 3 gusting 12 36.1
2014-Jul-23 18:51 270 8 gusting 13 36.1
2014-Jul-23 18:46 180 2 gusting 8 36.7
2014-Jul-23 18:41 225 4 gusting 12 36.1
2014-Jul-23 18:36 180 2 gusting 6 37.2
2014-Jul-23 18:31 225 2 gusting 6 37.2
2014-Jul-23 18:26 225 3 gusting 9 37.2
2014-Jul-23 18:21 248 5 gusting 6 37.2
2014-Jul-23 18:16 315 2 gusting 8 37.2
2014-Jul-23 18:11 270 1 gusting 10 37.2
2014-Jul-23 18:06 180 3 gusting 9 37.8
2014-Jul-23 18:01 180 3 gusting 9 37.8
2014-Jul-23 17:56 248 2 gusting 6 37.8
2014-Jul-23 17:51 225 1 gusting 5 37.8
2014-Jul-23 17:46 225 4 gusting 9 37.8
2014-Jul-23 17:41 225 6 gusting 9 38.3
2014-Jul-23 17:36 225 3 gusting 7 38.3
2014-Jul-23 17:31 225 1 gusting 6 38.3
2014-Jul-23 17:26 270 4 gusting 8 37.8
2014-Jul-23 17:21 225 3 gusting 9 37.8
2014-Jul-23 17:16 225 3 gusting 6 37.8
2014-Jul-23 17:01 135 1 gusting 9 38.3
2014-Jul-23 16:56 180 4 gusting 6 38.3
2014-Jul-23 16:51 338 4 gusting 9 37.8
2014-Jul-23 16:46 180 3 gusting 6 38.3
2014-Jul-23 16:31 180 3 gusting 10 38.3
2014-Jul-23 16:26 180 1 gusting 7 38.3
2014-Jul-23 16:21 180 6 gusting 13 37.8
2014-Jul-23 16:16 225 3 gusting 7 38.3
2014-Jul-23 16:11 180 6 gusting 11 38.3
2014-Jul-23 16:06 315 3 gusting 7 38.3
2014-Jul-23 16:01 225 0 gusting 5 37.8